This is the latest recevied weather packets stored in our database for station/object HS6TUX-4. If no packets are shown the sender has not sent any weather packets the latest 10 day(s).
| Time | Temp. | Humidity | Pressure | Rain* | Wind** | Luminosity | Snow |
|---|---|---|---|---|---|---|---|
| 1777721605 | 35° C | 99% | 733 hPa | - | - | 0 W/m² | - |
| 1777720676 | 35° C | 99% | 733 hPa | - | - | 2 W/m² | - |
| 1777719748 | 35.56° C | 97% | 734 hPa | - | - | 5 W/m² | - |
| 1777718820 | 36.11° C | 93% | 734 hPa | - | - | 7 W/m² | - |
| 1777717891 | 36.67° C | 88% | 735 hPa | - | - | 9 W/m² | - |
| 1777716963 | 37.78° C | 81% | 736 hPa | - | - | 11 W/m² | - |
| 1777716035 | 37.78° C | 81% | 736 hPa | - | - | 13 W/m² | - |
| 1777715107 | 37.78° C | 80% | 736 hPa | - | - | 14 W/m² | - |
| 1777714179 | 38.89° C | 73% | 737 hPa | - | - | 15 W/m² | - |
| 1777713251 | 39.44° C | 67% | 738 hPa | - | - | 19 W/m² | - |
| 1777712323 | 39.44° C | 68% | 738 hPa | - | - | 21 W/m² | - |
| 1777711395 | 40° C | 73% | 738 hPa | - | - | 21 W/m² | - |
| 1777710467 | 40° C | 78% | 739 hPa | - | - | 25 W/m² | - |
| 1777709539 | 41.67° C | 69% | 740 hPa | - | - | 23 W/m² | - |
| 1777708611 | 40.56° C | 80% | 739 hPa | - | - | 31 W/m² | - |
| 1777707682 | 41.11° C | 78% | 740 hPa | - | - | 32 W/m² | - |
| 1777706755 | 41.67° C | 82% | 741 hPa | - | - | 38 W/m² | - |
| 1777705826 | 40° C | 86% | 738 hPa | - | - | 32 W/m² | - |
| 1777704898 | 43.33° C | 79% | 742 hPa | - | - | 46 W/m² | - |
| 1777703970 | 40.56° C | 83% | 740 hPa | - | - | 54 W/m² | - |
| 1777703041 | 41.11° C | 82% | 740 hPa | - | - | 48 W/m² | - |
| 1777702113 | 40° C | 88% | 739 hPa | - | - | 44 W/m² | - |
| 1777701185 | 40° C | 92% | 739 hPa | - | - | 49 W/m² | - |
| 1777700257 | 38.89° C | 94% | 737 hPa | - | - | 44 W/m² | - |
| 1777699328 | 39.44° C | 94% | 738 hPa | - | - | 46 W/m² | - |
* Rain since midnight (hover to see other rain measurements)
** Current wind speed in m/s (hover to see current wind gust speed)